Dewpoint
43 42 42 41 40 42 44 40 33 46 49 39 38 34 30 34 29 30 28 28 27 26 26 25 24 23 24 26 26 24 24 22 20 18 18 18 17 16 18 25 27 30 29 26
40 40 39 40 42 42 43 37 36 45 45 31 31 32 31 30 29 28 27 27 29 28 27 26 28 29 31 32 31 28 26 24 19 18 20 20 17 17 23 25 28 28 26 26
38 38 38 37 41 41 40 37 29 37 40 37 33 31 29 28 28 25 25 24 28 30 30 30 28 28 29 31 32 38 36 24 22 22 22 22 21 20 20 22 25 25 26 29
39 39 38 38 37 40 39 34 29 32 25 30 33 32 30 28 27 27 27 27 28 29 30 32 31 31 34 33 33 33 31 29 29 28 26 22 20 20 20 19 20 24 26 27
39 38 37 40 38 38 36 31 30 32 30 29 27 26 26 24 23 23 23 27 31 34 31 29 27 31 29 34 34 32 34 28 29 27 27 25 22 22 22 21 20 20 20 20
37 36 36 36 38 39 34 35 34 33 27 25 23 24 23 22 23 30 30 32 32 31 32 36 36 37 35 33 32 32 31 31 29 25 29 25 21 22 22 22 21 19 17 18
38 37 37 37 37 37 36 35 36 29 23 25 23 22 21 19 20 22 21 22 30 29 36 35 35 34 33 31 32 34 30 29 29 25 26 18 24 26 25 24 23 21 20 23
38 39 40 39 38 36 34 34 34 28 23 24 23 21 20 24 26 25 24 26 30 35 34 31 27 26 28 28 28 32 30 29 26 24 21 22 22 20 20 24 26 27 28 28
40 41 40 40 39 39 35 34 34 34 27 20 19 21 21 22 24 27 28 29 35 33 33 29 19 15 19 21 24 30 30 30 27 24 20 14 20 22 24 26 21 25 27 31
40 41 41 40 37 38 37 34 35 32 24 25 24 22 24 26 27 26 26 31 30 32 21 18 23 21 21 18 19 20 23 27 26 25 23 23 28 31 28 22 25 36 34 35
40 41 41 41 38 37 36 33 35 33 29 27 28 27 26 25 26 25 31 26 30 30 25 23 24 24 21 19 22 21 21 23 24 27 24 21 34 33 27 33 36 37 34 31
41 41 41 41 37 37 38 33 34 35 33 29 33 32 31 30 29 27 28 28 28 29 27 27 27 22 24 22 17 25 25 29 25 26 25 34 36 32 35 35 33 36 35 32
41 41 41 40 38 37 38 35 35 34 30 28 27 26 29 31 30 28 26 28 30 29 33 31 27 23 29 20 21 26 25 34 29 29 31 31 34 33 30 29 27 31 30 31
40 40 40 40 39 37 37 35 36 34 31 21 21 25 26 27 28 29 28 26 27 29 29 25 27 23 27 25 25 23 24 31 33 32 33 28 29 28 29 28 28 28 29 32
40 39 40 39 39 38 38 37 37 38 30 19 22 26 27 26 26 25 27 31 29 29 27 27 26 27 26 25 25 25 28 29 31 28 28 27 27 28 30 26 26 29 29 29
39 39 38 39 39 39 36 29 37 39 37 31 24 27 24 24 27 28 25 28 31 31 32 30 30 29 28 25 24 24 26 25 29 25 27 25 27 26 25 24 23 22 23 25
39 39 39 40 40 37 31 28 37 39 39 31 26 22 26 30 29 27 29 31 33 31 30 30 28 29 32 30 24 24 25 26 28 30 31 29 27 25 23 22 21 25 23 22
39 39 40 40 39 37 34 34 36 37 33 32 23 22 21 32 31 31 34 29 34 34 32 33 29 30 31 26 26 27 28 28 33 33 33 33 33 31 23 21 21 24 24 26
37 39 39 36 34 30 29 39 39 38 31 23 24 20 16 31 31 33 33 34 29 33 29 30 31 29 26 30 31 30 35 34 34 35 36 36 34 32 30 23 24 24 25 27
39 36 31 22 32 40 39 34 32 33 33 31 24 23 21 26 29 28 28 32 28 26 30 34 28 26 30 29 36 36 36 36 37 36 36 37 36 34 31 29 29 35 37 37
34 29 27 37 40 34 31 27 22 25 24 27 26 24 22 30 26 26 28 29 28 25 28 28 26 25 34 35 35 36 36 37 37 35 36 39 40 39 38 38 38 38 38 38
34 36 38 37 33 29 25 23 26 24 22 25 27 27 27 29 33 28 30 27 25 20 29 24 21 31 34 35 35 35 37 36 34 35 34 36 38 40 40 38 37 36 34 33
36 35 31 28 26 20 21 19 23 25 30 32 33 32 34 34 33 32 28 20 17 28 17 18 29 33 33 34 33 34 35 35 35 34 34 34 36 37 38 36 34 33 33 32
33 29 21 25 24 25 26 26 26 29 32 32 32 33 33 31 29 27 23 24 26 16 16 22 31 31 31 32 33 32 32 33 33 34 33 31 32 32 33 33 33 33 33 33
31 30 23 25 29 32 32 31 32 33 33 31 30 31 30 27 24 26 25 21 19 21 22 30 32 31 31 31 30 30 30 32 32 32 31 30 31 31 31 32 33 32 33 33
31 29 25 27 25 25 29 31 28 34 32 33 30 27 24 22 24 23 19 20 18 27 30 29 31 33 33 32 31 31 31 31 33 33 32 31 30 31 31 30 30 30 31 32
29 29 31 29 29 28 27 32 28 34 31 29 25 24 25 27 26 26 28 27 30 32 32 32 33 32 33 31 31 32 31 31 30 33 31 30 29 27 30 28 27 28 28 29
Lifted_Index
17 17 17 17 16 15 14 12 9 9 9 8 8 7 7 7 7 7 7 7 6 6 6 6 6 6 6 6 5 4 4 2 2 2 3 3 2 1 1 -0 0 0 1 1
17 17 17 17 16 15 14 12 11 10 9 8 8 8 8 8 8 8 7 7 7 6 6 6 5 5 5 5 4 4 3 2 2 2 2 2 1 1 0 0 0 1 1 1
17 17 17 17 16 15 14 13 12 11 10 10 10 10 10 9 9 8 8 7 7 6 6 5 4 4 4 4 3 2 2 1 1 1 1 1 1 1 0 0 1 1 1 1
17 17 17 17 16 16 15 14 13 12 11 11 11 10 10 10 9 9 8 7 6 5 4 4 3 3 3 2 2 1 1 1 1 1 1 1 1 1 1 1 1 1 1 1
17 17 17 16 16 15 14 14 13 12 12 11 11 11 10 9 9 8 7 6 4 3 3 2 2 2 2 1 1 0 0 0 0 0 1 1 1 1 1 1 1 1 1 2
16 16 16 16 15 14 14 13 12 12 12 12 11 10 9 8 8 7 6 4 3 2 1 1 1 1 1 1 1 1 0 0 0 0 0 0 1 1 1 1 1 1 1 1
16 16 16 15 15 14 14 13 12 12 12 11 9 8 7 6 6 5 4 3 1 1 0 1 1 1 1 1 1 1 0 0 -0 0 0 0 1 1 0 0 0 0 1 1
15 15 15 15 14 14 13 12 11 10 10 9 7 6 5 4 4 3 2 1 0 0 0 0 1 1 1 1 1 0 0 0 0 0 0 0 0 0 -0 0 0 0 0 0
14 14 13 13 13 12 11 10 8 7 7 7 5 4 3 3 2 1 1 0 0 -0 -0 0 0 0 1 1 0 0 -0 0 0 0 0 0 0 -0 -0 0 0 -0 -0 -0
12 11 11 11 10 9 8 7 6 5 5 5 4 3 3 2 1 1 1 1 0 0 0 0 0 0 1 1 1 0 0 -0 -0 0 0 1 0 -0 -0 0 0 -0 -0 -0
9 9 8 8 7 6 6 5 5 4 4 4 4 3 2 2 1 1 1 1 1 1 1 1 0 1 1 1 1 1 0 -0 -0 -0 0 0 0 0 0 0 0 -0 -1 -1
7 7 6 6 5 5 5 5 4 4 4 4 3 3 2 1 1 1 1 1 1 1 1 1 1 2 2 2 2 1 1 0 -0 -0 -0 -0 -0 0 0 1 0 -0 -0 -1
6 6 5 5 5 5 4 4 4 4 4 4 3 2 1 0 0 1 1 1 1 1 1 2 2 2 2 2 2 2 2 1 0 0 0 -0 -0 0 1 1 0 0 -0 -0
6 5 4 4 4 4 4 4 4 4 4 4 3 2 1 0 0 1 1 1 1 1 2 2 2 3 3 3 3 2 2 1 1 0 0 0 0 1 1 1 1 0 0 -0
5 4 4 4 4 4 4 4 4 3 3 3 2 1 1 1 1 1 1 2 1 2 2 2 2 2 3 3 3 2 1 1 1 0 0 1 1 1 1 1 1 1 1 1
4 3 3 3 3 4 4 4 3 3 2 2 2 1 1 1 1 2 2 2 2 1 2 2 2 2 3 3 2 1 1 1 1 1 1 1 1 1 1 1 2 2 1 1
3 3 3 3 3 4 4 4 3 2 2 2 2 2 1 1 1 2 2 2 2 1 2 2 2 2 3 2 2 1 1 1 1 1 1 1 1 1 1 1 2 2 2 2
3 3 3 3 3 3 3 3 2 2 2 2 2 2 2 1 1 1 2 2 2 2 2 3 3 3 2 2 1 1 1 1 1 1 1 1 0 0 1 1 2 2 2 2
4 4 3 3 3 3 3 2 2 3 3 3 4 3 3 2 2 2 2 2 2 2 2 2 2 2 2 1 1 1 1 1 1 1 1 0 0 0 0 1 1 2 1 1
4 4 4 3 3 3 3 3 3 4 4 4 4 4 4 3 3 3 3 2 2 2 1 1 1 1 1 1 1 1 1 1 1 1 1 0 0 0 0 1 1 1 1 1
4 4 4 4 3 4 4 4 4 4 4 4 4 3 3 3 3 3 3 2 2 1 1 1 1 1 1 0 1 1 1 2 2 2 2 1 1 0 0 0 1 1 1 1
4 4 4 4 4 4 4 4 4 3 3 3 2 2 2 2 2 2 2 2 2 2 1 1 1 1 1 1 1 1 1 2 2 2 3 2 2 1 1 1 1 1 1 1
4 4 4 4 3 3 3 3 3 3 2 2 1 1 1 1 1 2 2 2 2 2 1 1 1 1 2 2 1 1 1 2 2 3 3 3 2 2 2 2 2 2 2 2
4 4 3 3 2 2 2 2 2 2 2 2 1 1 1 1 1 2 2 2 2 2 1 1 1 2 2 2 2 2 2 2 2 3 3 3 3 3 2 2 2 3 3 3
4 3 3 2 2 2 2 2 2 2 2 2 1 1 1 1 2 2 2 2 2 1 1 1 2 2 2 2 2 3 3 3 3 3 3 4 4 3 3 3 2 3 3 3
4 3 3 2 2 2 2 2 2 2 2 2 2 1 1 1 2 2 2 1 1 1 1 2 2 2 2 2 2 3 3 4 4 3 3 4 4 4 4 3 3 3 3 3
3 3 3 3 3 3 3 3 3 2 2 2 2 1 1 1 1 1 1 1 1 1 2 2 2 2 2 2 3 3 4 4 4 4 4 4 4 4 4 4 4 4 4 4